COSMOS 252 DEB, 3900

Orbit data source: Space-Track

COSMOS 252 DEB, 3900 is space debris in LEO originally from a launch on Fri, 01 Nov 1968 UTC launched from the Tyuratam Missile And Space Complex (TTMTR). Debris objects in space refer to the collection of defunct objects orbiting the Earth. Examples of debris include non-operational satellites, rocket bodies, and fragments generated from explosions, collisions, or faulty payload assembly.

Loading next visibility...
Identifier
3900, 1968-097BM
Orbit
LEO
Country
Flag of CISCIS
Related business
Manufacturer
Unknown
Mission
Spacecraft
Bus & Motor
Unknown
Mass
Unknown
Launch date (UTC)
1968-11-01 (58 years ago)
Launch vehicle
Unknown
Launch site
Tyuratam Missile And Space Complex (TTMTR)
Object type
Payload
Rocket body
Debris
Shape & HBR
Unknown shape, 0.1 m
Radar Cross Section
Medium (>0.1 m² and <1 m²)

Expand to show TLE details & history
Last TLE update: 11 hours ago

TLE from 11 hours ago
0 COSMOS 252 DEB
1 03900U 68097BM  26174.82362661  .00007659  00000-0  66740-3 0  9999
2 03900  62.1987 325.0453 0176477 257.9972 100.1286 14.86405358890528
Epoch: 2026-06-23T19:46Z
TLE epoch observation values (Epoch: 2026-06-23T19:46:01.339Z)
Latitude
0.00003°
Longitude
116.55008°
Altitude
634.741 km
Speed
7.529 km/s
True Right ascension
21h 40m 10s
True Declination
0° 00' 00"
Sunlit
Object was in full shadow at epoch
Visualization orbit readout
Latitude
Unknown
Longitude
Unknown
Altitude
Unknown
Speed
Unknown
Apparent Right ascension
Unknown
Apparent Declination
Unknown
Sunlit
N/A
Visualization observer readout
Local Sidereal Time
17:50:15
Azimuth
Unknown
Elevation
Unknown
Doppler factor
Unknown
Orbital elements
Apogee altitude
731.378 km
Perigee altitude
484.796 km
Semi-major axis
6,986.224 km
Eccentricity
0.01765
Inclination
62.1987°
RAAN
325.0453°
Arg. of periapsis
257.9972°
True anomaly
102.11127°
Mean anomaly
100.1286°
Eccentric anomaly
101.12075°
Mean motion
3.71689 °/min
Orbital period
96.86 mins
BSTAR
0.0006674
Loading maneuver chart data...
Computing Atmospheric mass density...

Documentation

Showing up to 5 results
|